Torna al catalogo

NIMBUS 2 DEB

AttivoLEO
NORAD 26816·DEBRIS·🇺🇸 United States

Lanciato May 15, 1966 da Vandenberg Space Force Base

Loading…

Prossimi Passaggi (prossime 24 ore)

TLE

AggiornatoSource: Space-Track

Epoca: Sep 14, 2026, 09:14 UTC

1 26816U 66040L   26257.38489844  .00002291  00000-0  31706-2 0  9992
2 26816 100.3346 208.6150 0054686 274.5109 238.1812 13.58712329256022

Traccia NIMBUS 2 DEB in tempo reale con AllMySat

Download on the App Store